Regional Weather Roundup
Issued by NWS Boston, MA

Home | Current Version | Previous Version | Text Only | Print | Product List | Glossary On
Versions: 1 2 3 4 5 6 7 8 9 10 11 12 13 14 15 16 17 18 19 20 21 22 23 24 25 26 27 28 29 30 31 32 33 34 35 36 37 38 39 40 41 42 43 44 45 46 47 48 49 50
709
ASUS41 KBOX 240210
RWRBOX

REGIONAL WEATHER ROUNDUP
NATIONAL WEATHER SERVICE TAUNTON MA
1000 PM EDT MON OCT 23 2017

NOTE:  "FAIR" INDICATES FEW OR NO CLOUDS BELOW 12,000 FEET WITH NO
SIGNIFICANT WEATHER AND/OR OBSTRUCTIONS TO VISIBILITY.

MAZALL-240300-
EASTERN MASSACHUSETTS

CITY           SKY/WX    TMP DP  RH WIND       PRES   REMARKS
BOSTON         CLOUDY    61  59  93 E3        30.18S
BEVERLY        CLOUDY    60  59  96 CALM      30.18S
LAWRENCE       CLOUDY    61  58  90 NE3       30.20F
BEDFORD        CLOUDY    59  55  87 NE3       30.16F
BLUE HILL        N/A     64  62  93 S8        30.17F
NORWOOD        CLOUDY    63  59  87 CALM      30.17S
MARSHFIELD     CLOUDY    66  64  94 S6        30.18S
PLYMOUTH       CLOUDY    69  62  78 S8        30.19S
TAUNTON        CLOUDY    68  62  81 S7        30.17S
NEW BEDFORD    CLOUDY    68  63  84 S15       30.17S
$$

MAZALL-240300-
CAPE COD AND THE ISLANDS

CITY           SKY/WX    TMP DP  RH WIND       PRES   REMARKS
FALMOUTH       CLOUDY    66  63  88 S15       30.20S
HYANNIS        CLOUDY    66  62  87 S8        30.18F
CHATHAM        CLOUDY    63  62  97 S8G16     30.22S
PROVINCETOWN   CLOUDY    66  62  87 S13G18    30.20S
NANTUCKET      CLOUDY    64  63  96 SE15      30.21S
MARTHAS VNYRD  CLOUDY    65  63  93 S15       30.19S
$$

MAZALL-240300-
CENTRAL AND WESTERN MASSACHUSETTS

CITY           SKY/WX    TMP DP  RH WIND       PRES   REMARKS
WORCESTER      CLOUDY    63  59  87 S10       30.17F
FITCHBURG      CLOUDY    60  59  96 NW5       30.17F
ORANGE         CLOUDY    58  57  97 CALM      30.14F
SPRINGFIELD    MOCLDY    64  60  87 SE5       30.11F
WESTFIELD      CLOUDY    64  62  93 VRB5      30.11F
NORTH ADAMS    CLOUDY    66  57  72 E9G20     30.08F
PITTSFIELD     CLOUDY    63  57  81 SE10G22   30.08F
$$

RIZALL-240300-
RHODE ISLAND

CITY           SKY/WX    TMP DP  RH WIND       PRES   REMARKS
PROVIDENCE     CLOUDY    67  65  93 S12       30.17F
NEWPORT        CLOUDY    66  65  96 S14G22    30.17S
BLOCK ISLAND   MOCLDY    66  64  93 S14       30.16F
SMITHFIELD     CLOUDY    65  63  93 VRB6      30.17F
WESTERLY       MOCLDY    67  64  90 S10       30.16F
$$

CTZALL-240300-
CONNECTICUT

CITY           SKY/WX    TMP DP  RH WIND       PRES   REMARKS
BRADLEY INTL   CLOUDY    64  61  90 S6        30.11F
HARTFORD       MOCLDY    66  63  90 S6        30.10F
BRIDGEPORT     CLOUDY    68  64  87 SE10      30.09F
DANBURY        CLOUDY    67  62  84 SE7       30.09F
GROTON         CLOUDY    67  64  90 SE16      30.13F
NEW HAVEN      CLOUDY    67  64  90 SE8       30.10F
CHESTER        CLOUDY    64  64 100 VRB6      30.13F
MERIDEN        CLOUDY    66  63  90 S5        30.10F
WILLIMANTIC    CLOUDY    67  65  93 S9        30.14F
OXFORD         CLOUDY    65  63  93 SE12      30.11F
$$

MEZ002-015-021-024-NHZ003-005-008-011-012-014-VTZ005-008-240300-
NORTHERN NEW ENGLAND

CITY           SKY/WX    TMP DP  RH WIND       PRES   REMARKS
PORTLAND ME    FOG       56  55  97 SE9       30.21S VSB 1/4
BANGOR ME      CLOUDY    56  54  93 S7        30.21F
CONCORD NH     CLOUDY    57  55  93 CALM      30.18S
MANCHESTER NH  MOCLDY    60  58  92 SE3       30.17S
NASHUA NH      CLOUDY    61  59  93 SE3       30.18S
PORTSMOUTH NH  FOG       57  56  99 NE3       30.18F VSB 1/4
JAFFREY NH     CLOUDY    63  61  93 S6        30.17F
KEENE NH       CLOUDY    54  54 100 CALM      30.14F
BURLINGTON VT  MOCLDY    68  53  58 S8        30.01F
MT. WASHINGTON FOG       43  43 100 S45G54      N/A  VSB 1/16WCI  30
$$

NYZ052-076-240300-
EASTERN NEW YORK

CITY           SKY/WX    TMP DP  RH WIND       PRES   REMARKS
ALBANY         CLOUDY    69  57  65 S10       30.04F
NEW YORK CITY  CLOUDY    71  64  78 SE16G25   30.04F
$$

ANZALL-240300-
MARINE OBSERVATIONS

STATION/POSITION TIME  TEMP    WIND        PRES    VSBY  WAVE
                       AIR SEA DIR/SP/G                  HT/PER
                 (UTC) (F)     (DEG/KT/KT) (MB)    (MI)  (FT/S)
BOSTON BUOY      0150   61 59  130/  8/ 10 1022.0F         1/ 9
BUZZARDS BAY     0100   65     150/ 21/ 22 1021.7F
NANTUCKET SOUND  0150   65 62  160/ 16/ 19 1022.3S         2/ 3
MASS BAY-STELLWA 0104   62 58  160/  8/ 10 1021.7R         1/ 5
ISLE OF SHOALS   0100   58     110/  4/  6 1022.2R
S OF BLOCK IS    NOT AVBL
$$

......................KEY.........................
  SKY/WX - SKY CONDITION/PRESENT WEATHER
  TMP    - TEMPERATURE IN FAHRENHEIT
  DWPT   - DEWPOINT IN FAHRENHEIT
  RH     - RELATIVE HUMIDITY IN PERCENT
  WIND   - DIRECTION AND SPEED IN MPH
  PRES   - MEAN SEA LEVEL PRESSURE IN INCHES OF HG
  WCI    - WIND CHILL INDEX
  VSB    - VISIBILITY IN MILES
  HX     - HEAT INDEX
  TC     - TEMPERATURE IN CELSIUS
  VRB    - VARIABLE WIND DIRECTION
  N/A    - NOT AVAILABLE




USA.gov is the U.S. government's official web portal to all federal, state and local government web resources and services.